Starlink 3703

operational
NORAD ID: 52101 Int'l Des: 2022-029 Owner: SPXS Country: US Constellation: starlink
LEOCIRCULAR

Starlink 3703について

説明を読み込み中...

リアルタイム位置

3D地球を読み込み中...

次回通過

高度履歴

Altitude vs Time

uPlot chart will show altitude changes over time

軌道要素

1 52101U 22029P 25259.13071309 .00000708 00000-0 62574-4 0 9994
2 52101 53.2165 152.9366 0001319 89.6992 270.4152 15.08845199194298
Epoch: Sep 16, 2025 • Age: 17 hours

現在のステータス

高度 540.9 km
速度 7.60 km/s
衛星直下点 30.15°N, 13.38°E
打ち上げ日 Mar 19, 2022
運用期間 3.4 years
タイプ internet

技術仕様

分類 Payload
質量 297.00 kg
乾燥質量 275.00 kg
総質量 297.00 kg
長さ 0.20 m
直径 2.80 m
スパン 9.00 m
形状 Box + pan
製造者 SPXS
バスタイプ Starlink
フェーズステータス In Orbit
所有者/国 SPXS/US

大規模コンステレーション

Loading constellations...